TimeCST,TemperatureF,Dew PointF,Humidity,Sea Level PressureIn,VisibilityMPH,Wind Direction,Wind SpeedMPH,Gust SpeedMPH,PrecipitationIn,Events,Conditions,WindDirDegrees,DateUTC
12:15 AM,44.8,35.8,71,30.13,10.0,Calm,Calm,-,N/A,,Clear,0,2013-02-04 06:15:00
12:35 AM,44.2,35.8,72,30.13,10.0,Calm,Calm,-,N/A,,Clear,0,2013-02-04 06:35:00
12:55 AM,43.3,36.3,76,30.12,10.0,SE,4.6,-,N/A,,Clear,140,2013-02-04 06:55:00
1:15 AM,48.2,33.8,58,30.12,10.0,Calm,Calm,-,N/A,,Clear,0,2013-02-04 07:15:00
1:35 AM,43.9,36.7,76,30.12,10.0,Calm,Calm,-,N/A,,Clear,0,2013-02-04 07:35:00
1:55 AM,48.0,34.0,58,30.11,10.0,SSE,4.6,-,N/A,,Clear,150,2013-02-04 07:55:00
2:15 AM,48.6,33.1,55,30.10,10.0,SE,3.5,-,N/A,,Clear,140,2013-02-04 08:15:00
2:55 AM,45.7,35.2,67,30.08,10.0,ESE,3.5,-,N/A,,Clear,110,2013-02-04 08:55:00
4:55 AM,43.2,37.8,81,30.08,10.0,Calm,Calm,-,N/A,,Clear,0,2013-02-04 10:55:00
5:15 AM,43.5,37.6,80,30.07,10.0,Calm,Calm,-,N/A,,Clear,0,2013-02-04 11:15:00
5:55 AM,42.6,38.7,86,30.08,10.0,Calm,Calm,-,N/A,,Clear,0,2013-02-04 11:55:00
6:15 AM,42.8,39.0,86,30.08,10.0,Calm,Calm,-,N/A,,Clear,0,2013-02-04 12:15:00
6:35 AM,43.2,40.3,90,30.08,10.0,Calm,Calm,-,N/A,,Clear,0,2013-02-04 12:35:00
6:55 AM,45.0,37.0,74,30.07,10.0,SSE,4.6,-,N/A,,Clear,150,2013-02-04 12:55:00
7:15 AM,47.3,33.8,59,30.07,10.0,SSE,5.8,-,N/A,,Clear,150,2013-02-04 13:15:00
7:55 AM,48.2,34.0,58,30.07,10.0,SSE,8.1,-,N/A,,Scattered Clouds,160,2013-02-04 13:55:00
8:15 AM,48.7,34.7,58,30.07,10.0,South,6.9,-,N/A,,Scattered Clouds,170,2013-02-04 14:15:00
8:35 AM,49.1,34.7,58,30.07,10.0,SSE,6.9,-,N/A,,Clear,160,2013-02-04 14:35:00
8:55 AM,50.2,34.7,55,30.07,10.0,SSE,4.6,-,N/A,,Clear,150,2013-02-04 14:55:00
9:15 AM,51.1,34.9,54,30.08,10.0,SSE,4.6,-,N/A,,Scattered Clouds,160,2013-02-04 15:15:00
9:35 AM,52.9,35.4,52,30.08,10.0,South,5.8,-,N/A,,Mostly Cloudy,170,2013-02-04 15:35:00
9:55 AM,54.7,35.4,48,30.08,10.0,South,8.1,-,N/A,,Mostly Cloudy,180,2013-02-04 15:55:00
10:15 AM,55.9,34.7,45,30.08,10.0,South,6.9,-,N/A,,Mostly Cloudy,170,2013-02-04 16:15:00
10:35 AM,58.1,34.9,42,30.08,10.0,South,6.9,-,N/A,,Mostly Cloudy,170,2013-02-04 16:35:00
10:55 AM,58.6,34.5,40,30.07,10.0,South,8.1,-,N/A,,Mostly Cloudy,170,2013-02-04 16:55:00
11:15 AM,58.8,35.1,41,30.07,10.0,South,6.9,-,N/A,,Mostly Cloudy,180,2013-02-04 17:15:00
11:35 AM,59.0,36.5,43,30.05,10.0,South,6.9,-,N/A,,Overcast,170,2013-02-04 17:35:00
11:55 AM,59.4,36.9,43,30.05,10.0,South,8.1,-,N/A,,Overcast,170,2013-02-04 17:55:00
12:15 PM,58.3,38.1,47,30.04,10.0,South,8.1,-,N/A,,Overcast,190,2013-02-04 18:15:00
12:55 PM,59.4,40.1,49,30.01,10.0,South,8.1,-,N/A,,Overcast,170,2013-02-04 18:55:00
1:15 PM,59.5,41.5,51,30.00,10.0,South,10.4,-,N/A,,Overcast,190,2013-02-04 19:15:00
1:35 PM,60.1,43.5,54,29.99,10.0,South,11.5,-,N/A,,Overcast,190,2013-02-04 19:35:00
1:55 PM,59.0,44.8,59,29.99,10.0,SSW,8.1,-,N/A,,Overcast,200,2013-02-04 19:55:00
2:15 PM,59.4,45.7,61,29.98,10.0,South,4.6,-,N/A,,Overcast,190,2013-02-04 20:15:00
2:55 PM,59.0,46.8,64,29.97,10.0,South,5.8,-,N/A,Rain,Light Rain,180,2013-02-04 20:55:00
3:15 PM,59.0,47.3,65,29.96,10.0,SSE,4.6,-,N/A,Rain,Light Rain,150,2013-02-04 21:15:00
3:55 PM,58.1,48.6,71,29.96,10.0,SSE,4.6,-,N/A,,Light Drizzle,150,2013-02-04 21:55:00
4:15 PM,57.7,49.1,73,29.96,10.0,SSE,4.6,-,N/A,Rain,Light Rain,160,2013-02-04 22:15:00
4:35 PM,57.4,49.6,75,29.95,10.0,SSE,4.6,-,N/A,Rain,Light Rain,160,2013-02-04 22:35:00
4:55 PM,57.2,50.0,77,29.95,10.0,SSE,3.5,-,N/A,,Light Drizzle,160,2013-02-04 22:55:00
5:15 PM,56.7,50.7,80,29.94,10.0,South,5.8,-,N/A,,Light Drizzle,170,2013-02-04 23:15:00
5:35 PM,56.3,50.9,82,29.94,10.0,SSE,4.6,-,N/A,,Mostly Cloudy,160,2013-02-04 23:35:00
5:55 PM,55.6,51.6,87,29.94,10.0,SSE,4.6,-,N/A,,Scattered Clouds,160,2013-02-04 23:55:00
6:15 PM,55.8,52.0,87,29.94,10.0,SSE,5.8,-,N/A,,Clear,160,2013-02-05 00:15:00
6:35 PM,55.8,51.4,85,29.93,10.0,SSE,6.9,-,N/A,,Clear,160,2013-02-05 00:35:00
6:55 PM,55.8,50.7,83,29.94,10.0,SSE,6.9,-,N/A,,Clear,160,2013-02-05 00:55:00
7:15 PM,55.8,50.0,81,29.95,10.0,South,6.9,-,N/A,,Clear,170,2013-02-05 01:15:00
7:35 PM,55.6,49.5,80,29.96,10.0,SSE,4.6,-,N/A,,Clear,150,2013-02-05 01:35:00
7:55 PM,54.9,49.1,81,29.96,10.0,South,4.6,-,N/A,,Clear,170,2013-02-05 01:55:00
8:15 PM,53.6,48.9,84,29.97,10.0,South,5.8,-,N/A,,Clear,170,2013-02-05 02:15:00
8:35 PM,53.6,49.1,85,29.97,10.0,SSE,4.6,-,N/A,,Scattered Clouds,160,2013-02-05 02:35:00
8:55 PM,53.1,48.9,86,29.98,10.0,SSE,5.8,-,N/A,,Mostly Cloudy,160,2013-02-05 02:55:00
9:15 PM,53.6,48.6,83,29.98,10.0,SSE,4.6,-,N/A,,Mostly Cloudy,150,2013-02-05 03:15:00
9:35 PM,53.2,48.9,85,29.98,10.0,South,4.6,-,N/A,,Overcast,170,2013-02-05 03:35:00
9:55 PM,53.6,49.3,85,29.98,10.0,South,4.6,-,N/A,,Overcast,180,2013-02-05 03:55:00
10:15 PM,53.8,49.1,84,29.98,10.0,South,5.8,-,N/A,,Overcast,180,2013-02-05 04:15:00
10:35 PM,52.9,51.8,96,29.98,10.0,South,5.8,-,0.04,Rain,Light Rain,180,2013-02-05 04:35:00
10:55 PM,52.9,52.7,99,29.98,10.0,South,4.6,-,0.04,,Overcast,190,2013-02-05 04:55:00
11:15 PM,52.9,52.9,100,29.97,10.0,South,5.8,-,N/A,,Overcast,170,2013-02-05 05:15:00
11:35 PM,53.1,52.7,99,29.97,10.0,South,6.9,-,N/A,,Overcast,190,2013-02-05 05:35:00
11:55 PM,52.2,51.8,99,29.96,10.0,South,6.9,-,N/A,,Mostly Cloudy,190,2013-02-05 05:55:00